Location: Newark
(2.1500°N, 12.1333°E)
Time: 02:09:03
(UTC+00:00)

LightSail 2 - Visible Passes

Search period start: 16 November 2019 00:00
Search period end: 26 November 2019 00:00
Orbit: 701 x 726 km, 24.0° (Epoch: 15 November)

Date Brightness Start Highest point End Pass type
(mag) Time Alt. Az. Time Alt. Az. Time Alt. Az.
16 Nov 7.3 18:09:51 10° S 18:12:13 13° SSE 18:14:09 11° SE visible
16 Nov 8.2 19:53:04 10° SW 19:53:08 10° SW 19:53:08 10° SW visible
17 Nov 6.6 18:55:31 10° SW 18:58:50 28° S 18:58:50 28° S visible
18 Nov 6.7 17:58:06 10° SSW 18:02:04 22° SSE 18:04:32 16° ESE visible
18 Nov 7.8 19:42:32 10° WSW 19:43:31 16° WSW 19:43:31 16° WSW visible
19 Nov 5.5 18:44:42 10° SW 18:49:14 55° S 18:49:14 55° S visible
20 Nov 7.3 03:39:20 11° N 03:41:25 13° NNE 03:43:55 10° NE visible
20 Nov 5.9 17:47:01 10° SW 17:51:47 39° SSE 17:54:57 19° E visible
20 Nov 7.5 19:32:21 10° W 19:33:56 20° W 19:33:56 20° W visible
21 Nov 6.6 04:24:52 10° NW 04:29:20 29° NNE 04:33:48 10° E visible
21 Nov 5.0 18:34:15 10° WSW 18:39:20 77° NNW 18:39:39 73° NNE visible
22 Nov 6.8 03:29:44 19° N 03:31:16 21° NNE 03:35:09 10° ENE visible
22 Nov 5.2 17:36:17 10° WSW 17:41:23 73° SSE 17:45:23 16° ENE visible
22 Nov 7.3 19:22:32 10° W 19:24:22 19° WNW 19:24:22 19° WNW visible
23 Nov 7.7 02:35:27 12° NE 02:35:27 12° NE 02:36:13 10° NE visible
23 Nov 5.7 04:14:26 12° NW 04:18:58 50° NNE 04:24:00 10° E visible
23 Nov 5.8 18:24:08 10° W 18:28:56 42° NNW 18:30:04 36° N visible
24 Nov 6.1 03:20:08 33° N 03:20:57 35° NNE 03:25:39 10° E visible
24 Nov 5.4 17:25:53 10° WSW 17:30:57 61° NNW 17:35:46 11° NE visible
24 Nov 7.5 19:13:13 10° WNW 19:14:45 15° NW 19:14:45 15° NW visible
25 Nov 7.6 02:25:50 15° ENE 02:25:50 15° ENE 02:27:06 10° ENE visible
25 Nov 5.1 04:04:49 19° WNW 04:08:31 90° NW 04:13:43 10° ESE visible
25 Nov 6.6 18:14:26 10° WNW 18:18:35 25° NNW 18:20:25 20° N visible
